アトラス彗星

C/2020 H6 ( ATLAS )

English version
Home page
Updated on February 21, 2021

---------------------------------------------------------------------

・ プロフィール

発見日 2020年4月22日
発見光度 18.1等
発見者 James Robinson (Asteroid Terrestrial-Impact Last Alert System (ATLAS) search program)

・ 軌道要素

Epoch 2021 Sept. 23.0 TT = JDT 2459480.5
T 2021 Oct. 1.07692 TT                                  Rudenko
q   4.7028744            (2000.0)            P               Q
z  -0.0001561      Peri.   20.34829     -0.74636169     +0.37991336
 +/-0.0000033      Node   213.70645     -0.65981098     -0.31487577
e   1.0007343      Incl.   79.96730     +0.08714180     +0.86978106
From 134 observations 2020 Apr. 22-2021 Jan. 20, mean residual 0".4.

・ 星図

・ 光度変化

        m1 = 6.5 + 5 logΔ + 10.0 log r

---------------------------------------------------------------------

軌道要素はM.P.E.C. 2021-B143に掲載されたものです。
星図はステラナビゲータ Ver.10 (アストロアーツ) で作成したものです。
光度グラフはComet for Windowsで作成したものです。

---------------------------------------------------------------------

Copyright(C) Seiichi Yoshida (comet@aerith.net). All rights reserved.